Baltica — 9HA2607 — position and weather

sailwx.info

Track history (hours):
 
Tides and Currents Weather Stations Pressure Air Temp Water Temp Dewpoint Dewpoint Depression Visibility Wind Speed Wind Dir Waves Ship Positions

Baltica

Last reported at 2014-Jul-30 07:33 UTC. Time now 2014-Jul-30 11:07 UTC.
Position N 57°34' E 020°35'.

Length 157 m; draft 6.9 m.

Type: Ship (hazmat cat A). MMSI: 215013000.

Date/timePositionNaut miles runAvg speedWind from/ knotsBaromVisibWave heightAir tempDewpointWater temp
2014-Jul-30 07:33N 57°34' E 020°35'6916.3
2014-Jul-30 03:18N 58°39' E 021°20'2016.3
2014-Jul-30 02:06N 58°58' E 021°30'915.9
2014-Jul-30 01:33N 59°06' E 021°37'1616.0
2014-Jul-30 00:33N 59°17' E 022°00'1716.1
2014-Jul-29 23:32N 59°27' E 022°26'1515.6
2014-Jul-29 22:33N 59°33' E 022°53'1616.3
2014-Jul-29 21:33N 59°37' E 023°24'1616.4
2014-Jul-29 20:33N 59°42' E 023°55'1716.6
2014-Jul-29 19:33N 59°48' E 024°26'1616.3
2014-Jul-29 18:33N 59°54' E 024°56'1616.4
2014-Jul-29 17:33N 60°08' E 025°12'5 0.3
2014-Jul-29 03:31N 60°13' E 025°12'0 0.0
2014-Jul-29 01:19N 60°13' E 025°12'0 0.0
2014-Jul-29 00:04N 60°13' E 025°12'0 0.0
2014-Jul-28 22:31N 60°13' E 025°12'0 0.0
2014-Jul-28 21:19N 60°13' E 025°12'0 0.0
2014-Jul-28 20:31N 60°13' E 025°12'0 0.0
2014-Jul-28 19:31N 60°13' E 025°12'0 0.0
2014-Jul-28 18:31N 60°13' E 025°12'0 0.0
2014-Jul-28 17:22N 60°13' E 025°12'0 0.0
2014-Jul-28 08:07N 60°13' E 025°12'1 0.3
2014-Jul-28 05:33N 60°12' E 025°13'1514.7
2014-Jul-28 04:34N 59°59' E 025°04'1616.3
2014-Jul-28 03:33N 59°47' E 024°41'1717.1
2014-Jul-28 02:33N 59°41' E 024°09'1716.8
2014-Jul-28 01:33N 59°36' E 023°38'1716.9
2014-Jul-28 00:33N 59°30' E 023°06'1716.9
2014-Jul-27 23:33N 59°24' E 022°35'3516.9
2014-Jul-27 21:28N 59°01' E 021°44'4917.0
2014-Jul-27 18:33N 58°14' E 021°12'10417.0
2014-Jul-27 12:27N 56°36' E 020°09'1517.2
2014-Jul-27 11:33N 56°21' E 019°60'1717.4
2014-Jul-27 10:33N 56°05' E 019°50'1717.3
2014-Jul-27 09:33N 55°49' E 019°40'1717.1
2014-Jul-27 08:33N 55°32' E 019°30'1717.0
2014-Jul-27 07:33N 55°16' E 019°20'1716.9
2014-Jul-27 06:34N 55°00' E 019°10'1717.1
2014-Jul-27 05:33N 54°44' E 019°00'1615.8
2014-Jul-27 04:34N 54°32' E 018°44'7 7.0
2014-Jul-27 03:31N 54°32' E 018°31'0 0.0
2014-Jul-27 02:31N 54°32' E 018°31'0 0.0
2014-Jul-27 01:31N 54°32' E 018°31'0 0.0
2014-Jul-27 00:31N 54°32' E 018°31'0 0.0
2014-Jul-26 23:31N 54°32' E 018°31'0 0.0
2014-Jul-26 22:31N 54°32' E 018°31'0 0.0
2014-Jul-26 21:31N 54°32' E 018°31'0 0.0
2014-Jul-26 20:31N 54°32' E 018°31'4 4.5
2014-Jul-26 19:33N 54°32' E 018°39'1414.3
2014-Jul-26 18:33N 54°42' E 018°57'1616.3
2014-Jul-26 17:34N 54°57' E 019°06'1616.5
2014-Jul-26 16:33N 55°13' E 019°15'1616.4
2014-Jul-26 15:33N 55°29' E 019°24'1616.1
2014-Jul-26 14:34N 55°44' E 019°32'1616.0
2014-Jul-26 13:33N 55°59' E 019°41'2116.3
2014-Jul-26 12:15N 56°20' E 019°53'13216.4
2014-Jul-26 04:12N 58°25' E 021°09'1016.1
2014-Jul-26 03:33N 58°35' E 021°16'1616.4
2014-Jul-26 02:33N 58°50' E 021°26'1616.4
2014-Jul-26 01:33N 59°06' E 021°37'1616.2
2014-Jul-26 00:34N 59°17' E 022°00'1616.1
2014-Jul-25 23:33N 59°27' E 022°25'1615.8
2014-Jul-25 22:33N 59°33' E 022°54'1616.3
2014-Jul-25 21:33N 59°37' E 023°25'1616.4
2014-Jul-25 20:33N 59°42' E 023°56'1616.4
2014-Jul-25 19:34N 59°47' E 024°27'1716.5
2014-Jul-25 18:33N 59°55' E 024°56'1616.2
2014-Jul-25 17:33N 60°09' E 025°12'4 3.3
2014-Jul-25 16:19N 60°13' E 025°12'0 0.0
2014-Jul-25 15:13N 60°13' E 025°12'0 0.0
2014-Jul-25 14:10N 60°13' E 025°12'0 0.0
2014-Jul-25 13:13N 60°13' E 025°12'0 0.0
2014-Jul-25 11:25N 60°13' E 025°12'0 0.0
2014-Jul-25 09:25N 60°13' E 025°12'0 0.0
2014-Jul-25 07:13N 60°13' E 025°12'0 0.0
2014-Jul-25 06:31N 60°13' E 025°12'1 0.5
2014-Jul-25 05:28N 60°12' E 025°13'1314.7
2014-Jul-25 04:34N 59°60' E 025°05'1716.4
2014-Jul-25 03:32N 59°48' E 024°41'1716.9
2014-Jul-25 02:33N 59°42' E 024°10'1716.9
2014-Jul-25 01:34N 59°37' E 023°39'1717.0
2014-Jul-25 00:33N 59°31' E 023°07'1717.2
2014-Jul-24 23:33N 59°25' E 022°35'2017.3
2014-Jul-24 22:25N 59°12' E 022°06'1517.1
2014-Jul-24 21:34N 59°02' E 021°46'1716.9
2014-Jul-24 20:34N 58°46' E 021°33'1717.2
2014-Jul-24 19:33N 58°30' E 021°22'1717.0
2014-Jul-24 18:33N 58°14' E 021°12'1817.1
2014-Jul-24 17:32N 57°57' E 021°01'1717.1
2014-Jul-24 16:33N 57°42' E 020°51'1717.0
2014-Jul-24 15:33N 57°26' E 020°40'1716.6
2014-Jul-24 14:34N 57°10' E 020°30'1717.1
2014-Jul-24 13:33N 56°54' E 020°20'1717.3
2014-Jul-24 12:34N 56°37' E 020°10'1717.2
2014-Jul-24 11:34N 56°21' E 019°59'1717.2
2014-Jul-24 10:33N 56°05' E 019°50'1717.2
2014-Jul-24 09:34N 55°49' E 019°40'1717.3
2014-Jul-24 08:34N 55°32' E 019°29'1717.3
2014-Jul-24 07:34N 55°16' E 019°19'1716.9
2014-Jul-24 06:33N 55°00' E 019°10'1717.1
2014-Jul-24 05:34N 54°44' E 019°00'1615.6
2014-Jul-24 04:34N 54°32' E 018°44'7 7.1
2014-Jul-24 03:33N 54°32' E 018°31'0 0.0
2014-Jul-24 02:32N 54°32' E 018°31'0 0.0
2014-Jul-24 01:32N 54°32' E 018°31'0 0.0
2014-Jul-24 00:32N 54°32' E 018°31'0 0.0
2014-Jul-23 23:32N 54°32' E 018°31'0 0.0
2014-Jul-23 22:32N 54°32' E 018°31'0 0.0
2014-Jul-23 21:32N 54°32' E 018°31'0 0.0
2014-Jul-23 20:32N 54°32' E 018°31'5 4.8
2014-Jul-23 19:33N 54°32' E 018°39'1414.3
2014-Jul-23 18:33N 54°42' E 018°57'1616.3
2014-Jul-23 17:33N 54°58' E 019°06'1616.4
2014-Jul-23 16:33N 55°13' E 019°15'1716.6
2014-Jul-23 15:33N 55°29' E 019°24'1616.3
2014-Jul-23 14:33N 55°44' E 019°33'1616.1
2014-Jul-23 13:33N 55°60' E 019°41'1616.3
2014-Jul-23 12:33N 56°15' E 019°50'1616.1
2014-Jul-23 11:33N 56°31' E 019°59'1616.0
2014-Jul-23 10:33N 56°46' E 020°08'1616.1
2014-Jul-23 09:33N 57°01' E 020°18'3216.2
2014-Jul-23 07:33N 57°32' E 020°36'1716.3
2014-Jul-23 06:31N 57°48' E 020°46'1516.0
2014-Jul-23 05:33N 58°03' E 020°55'3216.2
2014-Jul-23 03:33N 58°33' E 021°15'1616.3
2014-Jul-23 02:33N 58°49' E 021°26'1616.2
2014-Jul-23 01:33N 59°04' E 021°35'1616.2
2014-Jul-23 00:33N 59°16' E 021°58'1616.2
2014-Jul-22 23:33N 59°25' E 022°23'1615.8
2014-Jul-22 22:33N 59°32' E 022°51'1616.3
2014-Jul-22 21:33N 59°37' E 023°22'1616.2
2014-Jul-22 20:33N 59°41' E 023°53'1816.2
2014-Jul-22 19:25N 59°48' E 024°27'1716.3
2014-Jul-22 18:24N 59°55' E 024°57'1416.4
2014-Jul-22 17:33N 60°07' E 025°12'6 0.3
2014-Jul-21 17:33N 60°13' E 025°12'4 0.4
2014-Jul-21 07:33N 60°09' E 025°12'1917.3
2014-Jul-21 06:26N 59°51' E 024°56'1415.9
2014-Jul-21 05:32N 59°44' E 024°32'1616.4
2014-Jul-21 04:33N 59°39' E 024°01'1616.5
2014-Jul-21 03:34N 59°34' E 023°30'1716.6
2014-Jul-21 02:34N 59°29' E 022°60'1717.0
2014-Jul-21 01:33N 59°22' E 022°29'1717.0
2014-Jul-21 00:34N 59°11' E 022°03'1716.8
2014-Jul-20 23:34N 58°58' E 021°42'1716.8
2014-Jul-20 22:34N 58°43' E 021°30'3917.1
2014-Jul-20 20:19N 58°06' E 021°07'1317.0
2014-Jul-20 19:33N 57°54' E 020°58'1717.2
2014-Jul-20 18:34N 57°38' E 020°49'1717.0
2014-Jul-20 17:34N 57°22' E 020°39'1716.8
2014-Jul-20 16:34N 57°06' E 020°29'1716.9
2014-Jul-20 15:34N 56°50' E 020°18'1716.9
2014-Jul-20 14:34N 56°34' E 020°08'1717.1
2014-Jul-20 13:34N 56°18' E 019°57'1716.7
2014-Jul-20 12:34N 56°02' E 019°48'1716.8
2014-Jul-20 11:34N 55°46' E 019°38'1716.8
2014-Jul-20 10:34N 55°30' E 019°28'1716.8
2014-Jul-20 09:34N 55°15' E 019°18'1716.8
2014-Jul-20 08:34N 54°59' E 019°09'1716.9
2014-Jul-20 07:34N 54°43' E 018°59'  
Track history (hours):
 
Tides and Currents Weather Stations Pressure Air Temp Water Temp Dewpoint Dewpoint Depression Visibility Wind Speed Wind Dir Waves Ship Positions

Baltica

Last reported at 2014-Jul-30 07:33 UTC. Time now 2014-Jul-30 11:07 UTC.
Position N 57°34' E 020°35'.

Length 157 m; draft 6.9 m.

Type: Ship (hazmat cat A). MMSI: 215013000.

Date/timePositionNaut miles runAvg speedWind from/ knotsBaromVisibWave heightAir tempDewpointWater temp
2014-Jul-30 07:33N 57°34' E 020°35'6916.3
2014-Jul-30 03:18N 58°39' E 021°20'2016.3
2014-Jul-30 02:06N 58°58' E 021°30'915.9
2014-Jul-30 01:33N 59°06' E 021°37'1616.0
2014-Jul-30 00:33N 59°17' E 022°00'1716.1
2014-Jul-29 23:32N 59°27' E 022°26'1515.6
2014-Jul-29 22:33N 59°33' E 022°53'1616.3
2014-Jul-29 21:33N 59°37' E 023°24'1616.4
2014-Jul-29 20:33N 59°42' E 023°55'1716.6
2014-Jul-29 19:33N 59°48' E 024°26'1616.3
2014-Jul-29 18:33N 59°54' E 024°56'1616.4
2014-Jul-29 17:33N 60°08' E 025°12'5 0.3
2014-Jul-29 03:31N 60°13' E 025°12'0 0.0
2014-Jul-29 01:19N 60°13' E 025°12'0 0.0
2014-Jul-29 00:04N 60°13' E 025°12'0 0.0
2014-Jul-28 22:31N 60°13' E 025°12'0 0.0
2014-Jul-28 21:19N 60°13' E 025°12'0 0.0
2014-Jul-28 20:31N 60°13' E 025°12'0 0.0
2014-Jul-28 19:31N 60°13' E 025°12'0 0.0
2014-Jul-28 18:31N 60°13' E 025°12'0 0.0
2014-Jul-28 17:22N 60°13' E 025°12'0 0.0
2014-Jul-28 08:07N 60°13' E 025°12'1 0.3
2014-Jul-28 05:33N 60°12' E 025°13'1514.7
2014-Jul-28 04:34N 59°59' E 025°04'1616.3
2014-Jul-28 03:33N 59°47' E 024°41'1717.1
2014-Jul-28 02:33N 59°41' E 024°09'1716.8
2014-Jul-28 01:33N 59°36' E 023°38'1716.9
2014-Jul-28 00:33N 59°30' E 023°06'1716.9
2014-Jul-27 23:33N 59°24' E 022°35'3516.9
2014-Jul-27 21:28N 59°01' E 021°44'4917.0
2014-Jul-27 18:33N 58°14' E 021°12'10417.0
2014-Jul-27 12:27N 56°36' E 020°09'1517.2
2014-Jul-27 11:33N 56°21' E 019°60'1717.4
2014-Jul-27 10:33N 56°05' E 019°50'1717.3
2014-Jul-27 09:33N 55°49' E 019°40'1717.1
2014-Jul-27 08:33N 55°32' E 019°30'1717.0
2014-Jul-27 07:33N 55°16' E 019°20'1716.9
2014-Jul-27 06:34N 55°00' E 019°10'1717.1
2014-Jul-27 05:33N 54°44' E 019°00'1615.8
2014-Jul-27 04:34N 54°32' E 018°44'7 7.0
2014-Jul-27 03:31N 54°32' E 018°31'0 0.0
2014-Jul-27 02:31N 54°32' E 018°31'0 0.0
2014-Jul-27 01:31N 54°32' E 018°31'0 0.0
2014-Jul-27 00:31N 54°32' E 018°31'0 0.0
2014-Jul-26 23:31N 54°32' E 018°31'0 0.0
2014-Jul-26 22:31N 54°32' E 018°31'0 0.0
2014-Jul-26 21:31N 54°32' E 018°31'0 0.0
2014-Jul-26 20:31N 54°32' E 018°31'4 4.5
2014-Jul-26 19:33N 54°32' E 018°39'1414.3
2014-Jul-26 18:33N 54°42' E 018°57'1616.3
2014-Jul-26 17:34N 54°57' E 019°06'1616.5
2014-Jul-26 16:33N 55°13' E 019°15'1616.4
2014-Jul-26 15:33N 55°29' E 019°24'1616.1
2014-Jul-26 14:34N 55°44' E 019°32'1616.0
2014-Jul-26 13:33N 55°59' E 019°41'2116.3
2014-Jul-26 12:15N 56°20' E 019°53'13216.4
2014-Jul-26 04:12N 58°25' E 021°09'1016.1
2014-Jul-26 03:33N 58°35' E 021°16'1616.4
2014-Jul-26 02:33N 58°50' E 021°26'1616.4
2014-Jul-26 01:33N 59°06' E 021°37'1616.2
2014-Jul-26 00:34N 59°17' E 022°00'1616.1
2014-Jul-25 23:33N 59°27' E 022°25'1615.8
2014-Jul-25 22:33N 59°33' E 022°54'1616.3
2014-Jul-25 21:33N 59°37' E 023°25'1616.4
2014-Jul-25 20:33N 59°42' E 023°56'1616.4
2014-Jul-25 19:34N 59°47' E 024°27'1716.5
2014-Jul-25 18:33N 59°55' E 024°56'1616.2
2014-Jul-25 17:33N 60°09' E 025°12'4 3.3
2014-Jul-25 16:19N 60°13' E 025°12'0 0.0
2014-Jul-25 15:13N 60°13' E 025°12'0 0.0
2014-Jul-25 14:10N 60°13' E 025°12'0 0.0
2014-Jul-25 13:13N 60°13' E 025°12'0 0.0
2014-Jul-25 11:25N 60°13' E 025°12'0 0.0
2014-Jul-25 09:25N 60°13' E 025°12'0 0.0
2014-Jul-25 07:13N 60°13' E 025°12'0 0.0
2014-Jul-25 06:31N 60°13' E 025°12'1 0.5
2014-Jul-25 05:28N 60°12' E 025°13'1314.7
2014-Jul-25 04:34N 59°60' E 025°05'1716.4
2014-Jul-25 03:32N 59°48' E 024°41'1716.9
2014-Jul-25 02:33N 59°42' E 024°10'1716.9
2014-Jul-25 01:34N 59°37' E 023°39'1717.0
2014-Jul-25 00:33N 59°31' E 023°07'1717.2
2014-Jul-24 23:33N 59°25' E 022°35'2017.3
2014-Jul-24 22:25N 59°12' E 022°06'1517.1
2014-Jul-24 21:34N 59°02' E 021°46'1716.9
2014-Jul-24 20:34N 58°46' E 021°33'1717.2
2014-Jul-24 19:33N 58°30' E 021°22'1717.0
2014-Jul-24 18:33N 58°14' E 021°12'1817.1
2014-Jul-24 17:32N 57°57' E 021°01'1717.1
2014-Jul-24 16:33N 57°42' E 020°51'1717.0
2014-Jul-24 15:33N 57°26' E 020°40'1716.6
2014-Jul-24 14:34N 57°10' E 020°30'1717.1
2014-Jul-24 13:33N 56°54' E 020°20'1717.3
2014-Jul-24 12:34N 56°37' E 020°10'1717.2
2014-Jul-24 11:34N 56°21' E 019°59'1717.2
2014-Jul-24 10:33N 56°05' E 019°50'1717.2
2014-Jul-24 09:34N 55°49' E 019°40'1717.3
2014-Jul-24 08:34N 55°32' E 019°29'1717.3
2014-Jul-24 07:34N 55°16' E 019°19'1716.9
2014-Jul-24 06:33N 55°00' E 019°10'1717.1
2014-Jul-24 05:34N 54°44' E 019°00'1615.6
2014-Jul-24 04:34N 54°32' E 018°44'7 7.1
2014-Jul-24 03:33N 54°32' E 018°31'0 0.0
2014-Jul-24 02:32N 54°32' E 018°31'0 0.0
2014-Jul-24 01:32N 54°32' E 018°31'0 0.0
2014-Jul-24 00:32N 54°32' E 018°31'0 0.0
2014-Jul-23 23:32N 54°32' E 018°31'0 0.0
2014-Jul-23 22:32N 54°32' E 018°31'0 0.0
2014-Jul-23 21:32N 54°32' E 018°31'0 0.0
2014-Jul-23 20:32N 54°32' E 018°31'5 4.8
2014-Jul-23 19:33N 54°32' E 018°39'1414.3
2014-Jul-23 18:33N 54°42' E 018°57'1616.3
2014-Jul-23 17:33N 54°58' E 019°06'1616.4
2014-Jul-23 16:33N 55°13' E 019°15'1716.6
2014-Jul-23 15:33N 55°29' E 019°24'1616.3
2014-Jul-23 14:33N 55°44' E 019°33'1616.1
2014-Jul-23 13:33N 55°60' E 019°41'1616.3
2014-Jul-23 12:33N 56°15' E 019°50'1616.1
2014-Jul-23 11:33N 56°31' E 019°59'1616.0
2014-Jul-23 10:33N 56°46' E 020°08'1616.1
2014-Jul-23 09:33N 57°01' E 020°18'3216.2
2014-Jul-23 07:33N 57°32' E 020°36'1716.3
2014-Jul-23 06:31N 57°48' E 020°46'1516.0
2014-Jul-23 05:33N 58°03' E 020°55'3216.2
2014-Jul-23 03:33N 58°33' E 021°15'1616.3
2014-Jul-23 02:33N 58°49' E 021°26'1616.2
2014-Jul-23 01:33N 59°04' E 021°35'1616.2
2014-Jul-23 00:33N 59°16' E 021°58'1616.2
2014-Jul-22 23:33N 59°25' E 022°23'1615.8
2014-Jul-22 22:33N 59°32' E 022°51'1616.3
2014-Jul-22 21:33N 59°37' E 023°22'1616.2
2014-Jul-22 20:33N 59°41' E 023°53'1816.2
2014-Jul-22 19:25N 59°48' E 024°27'1716.3
2014-Jul-22 18:24N 59°55' E 024°57'1416.4
2014-Jul-22 17:33N 60°07' E 025°12'6 0.3
2014-Jul-21 17:33N 60°13' E 025°12'4 0.4
2014-Jul-21 07:33N 60°09' E 025°12'1917.3
2014-Jul-21 06:26N 59°51' E 024°56'1415.9
2014-Jul-21 05:32N 59°44' E 024°32'1616.4
2014-Jul-21 04:33N 59°39' E 024°01'1616.5
2014-Jul-21 03:34N 59°34' E 023°30'1716.6
2014-Jul-21 02:34N 59°29' E 022°60'1717.0
2014-Jul-21 01:33N 59°22' E 022°29'1717.0
2014-Jul-21 00:34N 59°11' E 022°03'1716.8
2014-Jul-20 23:34N 58°58' E 021°42'1716.8
2014-Jul-20 22:34N 58°43' E 021°30'3917.1
2014-Jul-20 20:19N 58°06' E 021°07'1317.0
2014-Jul-20 19:33N 57°54' E 020°58'1717.2
2014-Jul-20 18:34N 57°38' E 020°49'1717.0
2014-Jul-20 17:34N 57°22' E 020°39'1716.8
2014-Jul-20 16:34N 57°06' E 020°29'1716.9
2014-Jul-20 15:34N 56°50' E 020°18'1716.9
2014-Jul-20 14:34N 56°34' E 020°08'1717.1
2014-Jul-20 13:34N 56°18' E 019°57'1716.7
2014-Jul-20 12:34N 56°02' E 019°48'1716.8
2014-Jul-20 11:34N 55°46' E 019°38'1716.8
2014-Jul-20 10:34N 55°30' E 019°28'1716.8
2014-Jul-20 09:34N 55°15' E 019°18'1716.8
2014-Jul-20 08:34N 54°59' E 019°09'1716.9
2014-Jul-20 07:34N 54°43' E 018°59'  

Dump ship's entire track history